Total_Precipitation_Accumulation
0.29 0.42 0.48 0.40 0.37 0.42 0.36 0.25 0.18 0.17 0.09 0.08 0.06 0.05 0.07 0.07 0.08 0.06 0.01 0.00 0.00 0.00
0.34 0.48 0.48 0.37 0.47 0.50 0.38 0.30 0.32 0.36 0.25 0.15 0.07 0.03 0.03 0.02 0.04 0.05 0.04 0.01 0.01 0.00
0.07 0.23 0.42 0.60 0.47 0.32 0.40 0.39 0.26 0.28 0.27 0.28 0.20 0.11 0.08 0.04 0.03 0.02 0.03 0.02 0.01 0.01
0.01 0.05 0.09 0.21 0.47 0.67 0.50 0.24 0.18 0.20 0.22 0.21 0.21 0.17 0.13 0.09 0.05 0.02 0.03 0.04 0.05 0.06
0.00 0.03 0.05 0.07 0.15 0.28 0.48 0.96 0.91 0.55 0.36 0.20 0.14 0.14 0.12 0.14 0.12 0.08 0.06 0.05 0.04 0.07
0.00 0.00 0.01 0.03 0.04 0.09 0.14 0.27 0.60 1.08 1.05 0.88 0.56 0.30 0.14 0.10 0.11 0.09 0.08 0.08 0.06 0.06
0.00 0.00 0.00 0.00 0.00 0.01 0.05 0.09 0.14 0.33 0.47 0.70 1.02 1.02 0.69 0.39 0.20 0.11 0.09 0.10 0.08 0.08
0.00 0.00 0.00 0.00 0.00 0.00 0.02 0.06 0.11 0.12 0.17 0.19 0.27 0.48 0.80 0.84 0.68 0.47 0.26 0.16 0.14 0.14
0.00 0.00 0.00 0.00 0.00 0.00 0.00 0.01 0.05 0.14 0.19 0.21 0.18 0.28 0.27 0.52 0.83 1.12 1.25 1.06 0.90 0.87
0.00 0.00 0.00 0.00 0.00 0.00 0.00 0.00 0.00 0.01 0.04 0.09 0.16 0.44 0.35 0.42 0.34 0.33 0.35 0.43 0.51 0.59
0.00 0.00 0.00 0.00 0.00 0.00 0.00 0.00 0.00 0.00 0.00 0.01 0.06 0.24 0.24 0.37 0.35 0.33 0.42 0.56 0.67 0.70
0.00 0.00 0.00 0.00 0.00 0.00 0.00 0.00 0.00 0.00 0.00 0.00 0.01 0.06 0.06 0.15 0.11 0.16 0.22 0.30 0.40 0.53
0.00 0.00 0.00 0.00 0.00 0.00 0.00 0.00 0.00 0.00 0.00 0.01 0.00 0.04 0.02 0.02 0.01 0.01 0.03 0.09 0.16 0.35
0.00 0.00 0.00 0.00 0.00 0.00 0.00 0.00 0.00 0.00 0.00 0.00 0.00 0.00 0.01 0.01 0.01 0.01 0.01 0.02 0.03 0.08